Location: Obersdorf
(47.4079°N, 10.2781°E)
Time: 05:42:58
(UTC+02:00)

Nauka - Pass Details

Date: 28 September 2021
Orbit: 417 x 423 km, 51.6° (Epoch: 19 October)

Event Time Altitude Azimuth Distance (km) Brightness Sun altitude
Rises 19:22:44 0° 280° (W) 2,362 ? -4.0°
Reaches altitude 10° 19:24:56 10° 289° (WNW) 1,499 ? -4.3°
Maximum altitude 19:28:06 38° 359° (N) 659 ? -4.9°
Drops below altitude 10° 19:31:17 10° 70° (ENE) 1,502 ? -5.4°
Enters shadow 19:32:05 - 74° (ENE) 1,809 ? -5.5°
